KT5AL Weather Reports


Display with metric or nautical units.
time (UTC)temp
F
wind
direction
speed
MPH
gust
MPH
rain 1hr
in
rain 24hr
in
rain mn
in
humidity
%
barometer
mb
20260903195005 90 157 14.0 20.0 0.00 0.00 0.00 62 1008.3
20260903194005 89 112 8.0 10.0 0.00 0.00 0.00 63 1008.3
20260903193510 89 135 14.0 17.0 0.00 0.00 0.00 63 1008.3
20260903193005 90 157 11.0 15.0 0.00 0.00 0.00 61 1008.3
20260903192508 91 157 9.0 14.0 0.00 0.00 0.00 59 1008.3
20260903192006 91 112 9.0 13.0 0.00 0.00 0.00 59 1008.3
20260903191504 91 157 11.0 17.0 0.00 0.00 0.00 59 1008.7
20260903191007 90 180 14.0 21.0 0.00 0.00 0.00 61 1008.7
20260903185532 90 157 8.0 12.0 0.00 0.00 0.00 61 1009.0
20260903185004 91 180 12.0 14.0 0.00 0.00 0.00 59 1009.0
20260903183508 89 180 15.0 19.0 0.00 0.00 0.00 62 1009.7
20260903182503 89 157 8.0 12.0 0.00 0.00 0.00 62 1009.7
20260903180009 89 180 13.0 15.0 0.00 0.00 0.00 63 1009.7
20260903175506 89 157 10.0 17.0 0.00 0.00 0.00 64 1009.7
20260903175003 89 157 7.0 10.0 0.00 0.00 0.00 65 1009.7
20260903173507 89 90 9.0 12.0 0.00 0.00 0.00 65 1010.4
20260903173004 88 135 5.0 8.0 0.00 0.00 0.00 68 1010.4
20260903172508 87 157 10.0 16.0 0.00 0.00 0.00 68 1010.4
20260903164004 86 157 11.0 14.0 0.00 0.00 0.00 70 1010.7
20260903163005 85 180 10.0 13.0 0.00 0.00 0.00 73 1011.4
20260903161504 85 157 11.0 14.0 0.00 0.00 0.00 74 1011.0
20260903155504 84 180 11.0 14.0 0.00 0.00 0.00 75 1011.4
20260903155009 84 180 9.0 11.0 0.00 0.00 0.00 75 1011.4
20260903153505 83 180 8.0 11.0 0.00 0.00 0.00 76 1011.7
20260903152004 82 135 9.0 12.0 0.00 0.00 0.00 79 1012.1
20260903151005 83 135 10.0 15.0 0.00 0.00 0.00 77 1011.7
20260903150502 82 157 10.0 14.0 0.00 0.00 0.00 79 1011.7
20260903144530 81 112 9.0 14.0 0.00 0.00 0.00 80 1012.1
20260903142506 81 112 11.0 16.0 0.00 0.00 0.00 79 1012.1
20260903135002 81 112 7.0 9.0 0.00 0.00 0.00 81 1011.7
20260903133507 79 67 5.0 7.0 0.00 0.00 0.00 89 1012.4
20260903132507 78 45 2.0 3.0 0.00 0.00 0.00 93 1013.4
20260903131005 76 45 2.0 3.0 0.00 0.00 0.00 93 1013.8
20260903130510 76 45 4.0 4.0 0.00 0.00 0.00 94 1013.8
20260903130005 76 45 4.0 5.0 0.00 0.00 0.00 94 1013.8
20260903124026 75 180 2.0 3.0 0.00 0.00 0.00 93 1013.8
20260903121506 75 180 4.0 4.0 0.00 0.00 0.00 94 1013.4
20260903121004 75 180 5.0 6.0 0.00 0.00 0.00 93 1013.4
20260903120507 75 180 2.0 3.0 0.00 0.00 0.00 93 1013.4
20260903115509 75 202 5.0 7.0 0.00 0.00 0.00 93 1013.4
20260903114007 76 157 5.0 6.0 0.00 0.00 0.00 92 1013.4
20260903112504 76 45 4.0 6.0 0.00 0.00 0.00 92 1013.1
20260903111505 76 22 6.0 7.0 0.00 0.00 0.00 92 1013.1
20260903111009 77 22 6.0 6.0 0.00 0.00 0.00 91 1013.1
20260903105005 77 157 7.0 8.0 0.00 0.00 0.00 92 1012.7
20260903104503 77 157 7.0 7.0 0.00 0.00 0.00 93 1012.7
20260903103530 77 157 8.0 10.0 0.00 0.00 0.00 93 1012.7
20260903102504 77 180 6.0 7.0 0.00 0.00 0.00 93 1013.1
20260903102008 77 180 7.0 7.0 0.00 0.00 0.00 93 1013.1
20260903101008 76 157 5.0 6.0 0.00 0.00 0.00 93 1013.1
20260903095007 76 157 5.0 7.0 0.00 0.00 0.00 93 1013.1
20260903094504 76 157 5.0 7.0 0.00 0.00 0.00 94 1013.1
20260903094007 76 157 5.0 6.0 0.00 0.00 0.00 93 1013.1
20260903093002 76 180 2.0 3.0 0.00 0.00 0.00 93 1013.1
20260903091508 76 157 6.0 6.0 0.00 0.00 0.00 92 1013.1
20260903090005 77 157 5.0 6.0 0.00 0.00 0.00 90 1013.1
20260903085508 77 157 4.0 5.0 0.00 0.00 0.00 90 1012.7
20260903084508 77 112 6.0 9.0 0.00 0.00 0.00 90 1012.7
20260903084005 77 90 4.0 7.0 0.00 0.00 0.00 89 1012.7
20260903083508 77 112 5.0 8.0 0.00 0.00 0.00 89 1012.7
20260903075507 77 135 3.0 3.0 0.00 0.00 0.00 84 1012.7
20260903074507 78 135 5.0 7.0 0.00 0.00 0.00 83 1012.7
20260903073507 78 135 4.0 5.0 0.00 0.00 0.00 82 1012.7
20260903072507 78 135 4.0 5.0 0.00 0.00 0.00 83 1012.7
20260903071506 78 135 3.0 3.0 0.00 0.00 0.00 81 1012.7
20260903071004 78 135 4.0 5.0 0.00 0.00 0.00 81 1012.7
20260903070507 78 135 4.0 6.0 0.00 0.00 0.00 81 1012.4
20260903065508 79 135 3.0 4.0 0.00 0.00 0.00 79 1012.7
20260903064503 79 135 7.0 9.0 0.00 0.00 0.00 79 1012.7
20260903063505 79 112 6.0 10.0 0.00 0.00 0.00 78 1012.7
20260903063007 80 112 8.0 11.0 0.00 0.00 0.00 76 1012.7
20260903062007 81 135 10.0 13.0 0.00 0.00 0.00 74 1012.4
20260903061505 81 135 10.0 15.0 0.00 0.00 0.00 74 1012.4
20260903060505 81 112 9.0 15.0 0.00 0.00 0.00 72 1012.1
20260903060003 82 112 10.0 14.0 0.00 0.00 0.00 71 1012.1
20260903055003 82 112 13.0 20.0 0.00 0.00 0.00 69 1012.4
20260903054506 82 112 7.0 11.0 0.00 0.00 0.00 69 1012.4
20260903053002 83 90 11.0 14.0 0.00 0.00 0.00 67 1012.4
20260903051506 83 112 10.0 14.0 0.00 0.00 0.00 66 1012.1
20260903050506 83 112 10.0 12.0 0.00 0.00 0.00 66 1012.1
20260903050004 83 112 7.0 10.0 0.00 0.00 0.00 65 1012.1
20260903045507 83 135 8.0 10.0 0.00 0.00 0.00 65 1012.1
20260903044006 83 135 9.0 14.0 0.00 0.00 0.00 63 1012.1
20260903043005 84 112 10.0 12.0 0.00 0.00 0.00 63 1011.7
20260903040504 85 112 10.0 16.0 0.00 0.00 0.00 60 1011.4
20260903035009 86 135 11.0 14.0 0.00 0.00 0.00 59 1011.4
20260903034504 86 112 12.0 18.0 0.00 0.00 0.00 58 1011.0
20260903034008 87 112 7.0 12.0 0.00 0.00 0.00 56 1011.0
20260903033505 87 112 12.0 16.0 0.00 0.00 0.00 56 1011.0
20260903031508 88 112 13.0 18.0 0.00 0.00 0.00 52 1010.7
20260903030508 88 112 9.0 14.0 0.00 0.00 0.00 51 1010.7
20260903030004 89 90 13.0 19.0 0.00 0.00 0.00 50 1010.7
20260903025508 89 67 14.0 21.0 0.00 0.00 0.00 51 1010.4
20260903024004 89 90 12.0 15.0 0.00 0.00 0.00 50 1010.4
20260903023004 89 112 10.0 14.0 0.00 0.00 0.00 51 1010.0
20260903022508 89 112 14.0 19.0 0.00 0.00 0.00 51 1009.7
20260903022005 89 112 12.0 14.0 0.00 0.00 0.00 51 1009.7
20260903021005 89 112 8.0 13.0 0.00 0.00 0.00 52 1009.7
20260903020004 89 112 9.0 11.0 0.00 0.00 0.00 52 1009.7
20260903014502 90 135 8.0 12.0 0.00 0.00 0.00 51 1009.4
20260903013504 90 112 8.0 13.0 0.00 0.00 0.00 50 1009.0
20260903013006 90 112 8.0 11.0 0.00 0.00 0.00 49 1009.0
20260903012007 91 112 7.0 12.0 0.00 0.00 0.00 48 1008.7
20260903005009 93 90 10.0 15.0 0.00 0.00 0.00 41 1008.0
20260903003003 94 90 12.0 16.0 0.00 0.00 0.00 39 1007.3
20260903002506 94 67 11.0 14.0 0.00 0.00 0.00 39 1007.3
20260903002003 94 67 11.0 14.0 0.00 0.00 0.00 38 1007.3
20260903001510 95 90 9.0 12.0 0.00 0.00 0.00 38 1007.3
20260903001035 95 90 10.0 12.0 0.00 0.00 0.00 38 1007.3
20260902235505 95 67 9.0 12.0 0.00 0.00 0.00 38 1007.0
20260902235008 95 90 14.0 19.0 0.00 0.00 0.00 37 1007.0
20260902234506 95 90 11.0 14.0 0.00 0.00 0.00 37 1007.0
20260902234003 96 90 13.0 17.0 0.00 0.00 0.00 37 1007.0
20260902233506 95 90 9.0 10.0 0.00 0.00 0.00 38 1007.0
20260902232003 95 67 12.0 14.0 0.00 0.00 0.00 37 1007.0
20260902231505 96 67 12.0 16.0 0.00 0.00 0.00 37 1006.6
20260902230505 95 45 10.0 14.0 0.00 0.00 0.00 38 1006.6
20260902230003 96 45 10.0 13.0 0.00 0.00 0.00 39 1006.6
20260902225506 96 45 8.0 10.0 0.00 0.00 0.00 39 1006.3
20260902225004 96 45 9.0 12.0 0.00 0.00 0.00 38 1006.3
20260902224502 96 90 8.0 11.0 0.00 0.00 0.00 37 1006.6
20260902223504 97 90 7.0 9.0 0.00 0.00 0.00 38 1006.6
20260902223008 97 112 10.0 12.0 0.00 0.00 0.00 37 1006.6
20260902222505 97 112 10.0 13.0 0.00 0.00 0.00 37 1006.6
20260902221505 96 67 8.0 9.0 0.00 0.00 0.00 37 1007.0
20260902221002 96 67 8.0 10.0 0.00 0.00 0.00 38 1007.0
20260902220007 96 135 6.0 7.0 0.00 0.00 0.00 39 1007.3
20260902215504 96 90 12.0 14.0 0.00 0.00 0.00 39 1007.3
20260902214008 95 22 4.0 7.0 0.00 0.00 0.00 38 1007.7
20260902211507 95 67 12.0 15.0 0.00 0.00 0.00 37 1007.0
20260902211005 96 67 13.0 18.0 0.00 0.00 0.00 38 1007.0
20260902204502 95 45 7.0 10.0 0.00 0.00 0.00 38 1007.7
20260902202505 94 22 3.0 6.0 0.00 0.00 0.00 41 1008.3
20260902201504 95 45 8.0 11.0 0.00 0.00 0.00 40 1008.3
20260902200503 95 67 3.0 5.0 0.00 0.00 0.00 41 1008.7